This demonstration page uses our WeatherBlox Daily Observations layout. Learn more.

Left ArrowRight Arrow

Hourly Observations for April 13, 2020

Temp ( °F °C ) Dew Point ( °F °C ) Humidity (%) Winds ( mph kmh ) Pressure ( in mb ) Visibility ( mi km ) Precip ( " mm )
12:15 am 00:15 Clear 23 -5 15 -9.2 73 73 NW 12 19 30.28 1026 10 16.0934 0 0
12:35 am 00:35 Clear 23 -5.2 15 -9.5 72 72 NW 13 20 30.3 1026 10 16.0934 0 0
12:55 am 00:55 Clear 23 -5.2 15 -9.6 72 72 NW 12 19 30.31 1026 10 16.0934 0 0
1:15 am 01:15 Clear 22 -5.5 14 -9.8 72 72 NW 13 20 30.32 1027 10 16.0934 0 0
1:35 am 01:35 Clear 22 -5.6 14 -9.9 72 72 NW 12 19 30.33 1027 10 16.0934 0 0
1:55 am 01:55 Clear 21 -5.9 14 -10 73 73 NW 12 19 30.34 1028 10 16.0934 0 0
2:15 am 02:15 Clear 22 -5.7 14 -9.9 73 73 NW 10 17 30.33 1027 10 16.0934 0 0
2:35 am 02:35 Clear 21 -5.9 14 -10 73 73 NW 14 22 30.33 1027 10 16.0934 0 0
2:55 am 02:55 Clear 21 -6 14 -10 74 74 NW 12 19 30.33 1027 10 16.0934 0 0
3:15 am 03:15 Clear 21 -6 14 -10.1 73 73 NW 13 20 30.32 1027 10 16.0934 0 0
3:35 am 03:35 Clear 21 -6.1 14 -10.1 74 74 NNW 10 17 30.34 1027 10 16.0934 0 0
3:55 am 03:55 Clear 21 -6 14 -10.1 73 73 NW 12 19 30.33 1027 10 16.0934 0 0
4:15 am 04:15 Clear 21 -6.1 14 -10.2 73 73 NW 12 19 30.35 1028 10 16.0934 0 0
4:35 am 04:35 Clear 21 -6.1 14 -10.2 73 73 NW 12 19 30.36 1028 10 16.0934 0 0
4:55 am 04:55 Clear 20 -6.7 13 -10.5 75 75 NW 10 17 30.36 1028 10 16.0934 0 0
5:15 am 05:15 Clear 20 -6.7 13 -10.3 76 76 NW 10 17 30.36 1028 10 16.0934 0 0
5:35 am 05:35 Clear 20 -6.5 13 -10.5 74 74 NW 12 19 30.36 1028 10 16.0934 0 0
5:55 am 05:55 Clear 20 -6.7 13 -10.6 74 74 NW 12 19 30.36 1028 10 16.0934 0 0
6:15 am 06:15 Clear 20 -6.9 13 -10.5 76 76 NW 9 15 30.37 1029 10 16.0934 0 0
6:35 am 06:35 Clear 19 -7.1 13 -10.6 76 76 NNW 8 13 30.38 1029 10 16.0934 0 0
6:55 am 06:55 Clear 19 -7.2 13 -10.5 78 78 NW 8 13 30.38 1029 10 16.0934 0 0
7:15 am 07:15 Sunny 18 -7.8 13 -10.7 80 80 NW 6 9 30.39 1029 10 16.0934 0 0
7:35 am 07:35 Sunny 19 -7 14 -10 79 79 WNW 8 13 30.39 1029 10 16.0934 0 0
7:55 am 07:55 Sunny 21 -6 15 -9.5 77 77 WNW 6 9 30.38 1029 10 16.0934 0 0
8:15 am 08:15 Sunny 24 -4.7 16 -9.1 72 72 NW 9 15 30.38 1029 10 16.0934 0 0
8:35 am 08:35 Sunny 25 -3.7 15 -9.4 65 65 NW 12 19 30.37 1029 10 16.0934 0 0
8:55 am 08:55 Sunny 27 -2.7 15 -9.6 59 59 NW 10 17 30.36 1028 10 16.0934 0 0
9:15 am 09:15 Sunny 28 -2 15 -9.4 57 57 NNW 12 19 30.36 1028 10 16.0934 0 0
9:35 am 09:35 Sunny 30 -1.3 16 -9.1 56 56 NW 13 20 30.34 1027 10 16.0934 0 0
9:55 am 09:55 Sunny 31 -0.8 16 -9.1 54 54 NW 14 22 30.34 1028 10 16.0934 0 0
10:15 am 10:15 Sunny 32 0 16 -9.1 51 51 WNW 16 26 30.34 1027 10 16.0934 0 0
10:35 am 10:35 Mostly Cloudy 32 0 14 -10.1 47 47 NW 13 20 30.35 1028 10 16.0934 0 0
10:55 am 10:55 Partly Cloudy 33 0.5 13 -10.5 44 44 NW 15 24 30.34 1027 10 16.0934 0 0
11:15 am 11:15 Partly Cloudy 33 0.7 13 -10.3 44 44 NW 12 19 30.34 1027 10 16.0934 0 0
11:35 am 11:35 Partly Cloudy 35 1.4 10 -12.3 36 36 NNW 15 24 30.33 1027 10 16.0934 0 0
11:55 am 11:55 Partly Cloudy 35 1.6 7 -14.1 30 30 NNW 12 19 30.32 1027 10 16.0934 0 0
12:15 pm 12:15 Sunny 36 2 7 -13.9 30 30 NW 14 22 30.32 1027 10 16.0934 0 0
12:35 pm 12:35 Sunny 36 2 3 -16.3 25 25 NNW 8 13 30.32 1027 10 16.0934 0 0
12:55 pm 12:55 Sunny 36 2.1 2 -16.9 23 23 N 15 24 30.31 1026 10 16.0934 0 0
1:15 pm 13:15 Sunny 38 3.4 4 -15.7 23 23 NW 15 24 30.29 1026 10 16.0934 0 0
1:35 pm 13:35 Sunny 38 3.4 2 -16.5 22 22 NNW 16 26 30.28 1026 10 16.0934 0 0
1:55 pm 13:55 Sunny 38 3.2 2 -16.6 22 22 NW 17 28 30.29 1026 10 16.0934 0 0
2:15 pm 14:15 Sunny 38 3.1 1 -17.1 21 21 NNW 15 24 30.29 1026 10 16.0934 0 0
2:35 pm 14:35 Sunny 39 3.7 4 -15.5 23 23 WNW 12 19 30.27 1025 10 16.0934 0 0
2:55 pm 14:55 Sunny 38 3.6 4 -15.8 23 23 NW 8 13 30.27 1025 10 16.0934 0 0
3:15 pm 15:15 Sunny 39 3.7 4 -15.5 23 23 N 8 13 30.27 1025 10 16.0934 0 0
3:35 pm 15:35 Sunny 39 3.8 3 -15.9 22 22 NNW 12 19 30.26 1025 10 16.0934 0 0
3:55 pm 15:55 Partly Cloudy 40 4.5 2 -16.4 20 20 NW 20 31 30.25 1024 10 16.0934 0 0
4:15 pm 16:15 Partly Cloudy 40 4.3 2 -16.4 21 21 NNW 14 22 30.25 1025 10 16.0934 0 0
4:35 pm 16:35 Mostly Cloudy 40 4.5 3 -16 21 21 NNW 14 22 30.24 1024 10 16.0934 0 0
4:55 pm 16:55 Partly Cloudy 38 3.3 3 -16.1 23 23 NNW 9 15 30.25 1025 10 16.0934 0 0
5:15 pm 17:15 Mostly Cloudy 39 4 3 -15.9 22 22 N 14 22 30.25 1024 10 16.0934 0 0
5:35 pm 17:35 Mostly Cloudy 38 3.2 4 -15.8 24 24 NW 12 19 30.26 1025 10 16.0934 0 0
5:55 pm 17:55 Mostly Cloudy 38 3.6 4 -15.8 23 23 NNW 15 24 30.25 1024 10 16.0934 0 0
6:15 pm 18:15 Mostly Cloudy 37 2.6 2 -16.8 23 23 N 10 17 30.27 1025 10 16.0934 0 0
6:35 pm 18:35 Partly Cloudy 38 3.2 2 -16.5 22 22 N 12 19 30.27 1025 10 16.0934 0 0
6:55 pm 18:55 Mostly Cloudy 38 3.1 3 -16.3 23 23 N 10 17 30.27 1025 10 16.0934 0 0
7:15 pm 19:15 Mostly Cloudy 37 2.7 3 -16 24 24 NNW 8 13 30.28 1025 10 16.0934 0 0
7:35 pm 19:35 Partly Cloudy 36 2 3 -16 25 25 NNW 8 13 30.29 1026 10 16.0934 0 0
7:55 pm 19:55 Sunny 35 1.5 4 -15.8 27 27 NNW 6 9 30.3 1026 10 16.0934 0 0
8:15 pm 20:15 Partly Cloudy 33 0.5 4 -15.5 29 29 NW 3 6 30.31 1026 10 16.0934 0 0
8:35 pm 20:35 Clear 31 -0.6 4 -15.3 32 32 NNW 5 7 30.33 1027 10 16.0934 0 0
8:55 pm 20:55 Clear 30 -1.2 4 -15.3 34 34 NW 5 7 30.34 1027 10 16.0934 0 0
9:15 pm 21:15 Clear 29 -1.8 4 -15.4 35 35 Calm 30.35 1028 10 16.0934 0 0
9:35 pm 21:35 Clear 28 -2.2 4 -15.5 36 36 NW 6 9 30.37 1028 10 16.0934 0 0
9:55 pm 21:55 Clear 29 -1.9 5 -15 36 36 NW 7 11 30.38 1029 10 16.0934 0 0
10:15 pm 22:15 Clear 28 -2.2 4 -15.3 36 36 NW 8 13 30.39 1029 10 16.0934 0 0
10:35 pm 22:35 Clear 25 -3.7 4 -15.5 40 40 NW 7 11 30.41 1030 10 16.0934 0 0
10:55 pm 22:55 Clear 26 -3.3 4 -15.8 38 38 WNW 3 6 30.41 1030 10 16.0934 0 0
11:15 pm 23:15 Clear 26 -3.2 4 -15.5 38 38 WNW 3 6 30.41 1030 10 16.0934 0 0
11:35 pm 23:35 Clear 26 -3.2 5 -15 40 40 W 3 6 30.41 1030 10 16.0934 0 0
11:55 pm 23:55 Clear 25 -3.7 4 -15.4 40 40 W 3 6 30.41 1030 10 16.0934 0 0

Powered by AerisWeather